Skip Page Navigation
NASA JPL Caltech
NASA Logo - Jet Propulsion Laboratory + View the NASA Portal
+ Center for Near-Earth Object Studies
JPL Home Earth Solar System Stars & Galaxies Technology
JPL Solar System Dynamics
BODIES ORBITS EPHEMERIDES TOOLS PHYSICAL DATA DISCOVERY FAQ SITE MAP
JPL Small-Body Database Browser
Search: [ help ]  
160086 (2000 LT23)
Classification: Main-belt Asteroid          SPK-ID: 2160086
Ephemeris | Orbit Diagram | Orbital Elements | Mission Design | Physical Parameters | Discovery Circumstances | Close-Approach Data ]

[ show orbit diagram ]
Orbital Elements at Epoch 2459200.5 (2020-Dec-17.0) TDB
Reference: JPL 17 (heliocentric ecliptic J2000)
 Element Value Uncertainty (1-sigma)   Units 
e .1949539376995203 5.1651e-08  
a 2.300625434965394 1.4562e-08 au
q 1.852109447247218 1.1557e-07 au
i 11.50672731930054 5.8628e-06 deg
node 252.7478716043712 2.8534e-05 deg
peri 32.90977322313818 3.6812e-05 deg
M 297.7688675008061 2.8194e-05 deg
tp 2459420.829427463919
(2021-Jul-25.32942746)
0.0001009 TDB
period 1274.580594978537
3.49
1.2102e-05
3.313e-08
d
yr
n .2824458503591625 2.6817e-09 deg/d
Q 2.749141422683568 1.7401e-08 au
  Orbit Determination Parameters
   # obs. used (total)      413  
   data-arc span      7317 days (20.03 yr)  
   first obs. used      2000-05-10  
   last obs. used      2020-05-22  
   planetary ephem.      DE441  
   SB-pert. ephem.      SB441-N16  
   condition code      0  
   norm. resid. RMS      .52656  
   source      ORB  
   producer      Otto Matic  
   solution date      2021-Apr-13 19:59:51  

Additional Information
 Earth MOID = .844582 au 
 Jupiter MOID = 2.40921 au 
 T_jup = 3.540 
[ show covariance matrix ]

Ephemeris | Orbit Diagram | Orbital Elements | Mission Design | Physical Parameters | Discovery Circumstances | Close-Approach Data ]

Physical Parameter Table
Parameter Symbol Value Units Sigma Reference Notes
absolute magnitude H 16.19   n/a E2021B55  
diameter diameter 3.496 km 0.080 urn:nasa:pds:neowise_diameters_albedos::2.0[mainbelt] (http://adsabs.harvard.edu/abs/2011ApJ...741...68M)  
geometric albedo albedo 0.069   0.012 urn:nasa:pds:neowise_diameters_albedos::2.0[mainbelt] (http://adsabs.harvard.edu/abs/2011ApJ...741...68M)  

160086 (2000 LT23)          Discovered 2000-Jun-07 by LINEAR at Socorro
Reference: 20070730/Numbers.arcLast Updated: 2007-08-06

[ show close-approach data ]
Alternate Designations
 2000 LT23 = 2001 XK134 
Ephemeris | Orbit Diagram | Orbital Elements | Mission Design | Physical Parameters | Discovery Circumstances | Close-Approach Data ]
ABOUT SSD CREDITS/AWARDS PRIVACY/COPYRIGHT GLOSSARY LINKS
FirstGov 2021-Apr-19 07:17 UT
(server date/time)  
NASA Home Page
Site Manager:   Ryan S. Park
Webmaster  Alan B. Chamberlin